Weather History for Robstown, TX

Change the Weather History Date:

Thursday, May 23, 2013

  Actual Average (KCRP) Record (KCRP)
Temperature  
Mean Temperature 84 °F 80 °F  
Max Temperature 92 °F 88 °F 96 °F (1988)
Min Temperature 77 °F 71 °F 56 °F (1967)
Degree Days  
Heating Degree Days 0 0  
Month to date heating degree days 0  
Since 1 July heating degree days 898  
Cooling Degree Days 20 15  
Month to date cooling degree days 291  
Year to date cooling degree days 719  
Growing Degree Days 34 (Base 50)    
Moisture  
Dew Point 74 °F    
Average Humidity 74    
Maximum Humidity 90    
Minimum Humidity 52    
Precipitation  
Precipitation 0.00 in 0.11 in 3.42 in (1993)
Month to date precipitation 2.19  
Year to date precipitation 9.39  
Snow  
Snow 0.00 in - - ()
Month to date snowfall  
Since 1 July snowfall  
Snow Depth -    
Sea Level Pressure  
Sea Level Pressure 29.91 in    
Wind  
Wind Speed 11 mph (SE)    
Max Wind Speed 20 mph    
Max Gust Speed 26 mph    
Visibility 10 miles    
Events      
T = Trace of Precipitation, MM = Missing Value Source: NWS Daily Summary

Daily Weather History Graph

Daily Weather History Graph

Search for Another Location

Airport:

Trip Planner

Search our weather history database for the weather conditions in past years. The results will help you decide how hot, cold, wet, or windy it might be!

Date:

Astronomy

May. 23, 2013 Rise Set
Actual Time 6:37 AM CDT 8:17 PM CDT
Civil Twilight 6:11 AM CDT 8:43 PM CDT
Nautical Twilight 5:40 AM CDT 9:14 PM CDT
Astronomical Twilight 5:08 AM CDT 9:47 PM CDT
Moon 6:57 PM CDT (5/23) 5:14 AM CDT (5/23)
Length of Visible Light 14h 32m
Length of Day
13h 40m
Waxing Gibbous, 97% of the Moon is Illuminated
May 23
Waxing Gibbous
May 24
Full
May 31
Last Quarter
Jun 8
New
Jun 16
First Quarter

Hourly Weather History & Observations

Time (CDT) Temp. Heat Index Dew Point Humidity Pressure Visibility Wind Dir Wind Speed Gust Speed Precip Events Conditions
12:15 AM 78.8 °F - 74.3 °F 86% 29.89 in 10.0 mi SE 10.4 mph - N/A   Mostly Cloudy
12:35 AM 78.6 °F - 74.5 °F 87% 29.88 in 10.0 mi ESE 8.1 mph - N/A   Mostly Cloudy
12:55 AM 78.8 °F - 74.5 °F 87% 29.88 in 10.0 mi ESE 9.2 mph - N/A   Overcast
1:15 AM 78.8 °F - 74.3 °F 86% 29.88 in 10.0 mi ESE 9.2 mph - N/A   Overcast
1:35 AM 78.4 °F - 74.3 °F 87% 29.88 in 10.0 mi ESE 8.1 mph - N/A   Scattered Clouds
1:55 AM 78.1 °F - 74.3 °F 88% 29.87 in 10.0 mi ESE 4.6 mph - N/A   Mostly Cloudy
2:15 AM 77.9 °F - 74.3 °F 89% 29.87 in 10.0 mi ESE 5.8 mph - N/A   Mostly Cloudy
2:35 AM 77.2 °F - 73.9 °F 90% 29.87 in 10.0 mi ESE 4.6 mph - N/A   Scattered Clouds
2:55 AM 77.4 °F - 74.3 °F 90% 29.87 in 10.0 mi ESE 5.8 mph - N/A   Mostly Cloudy
3:15 AM 77.9 °F - 74.5 °F 89% 29.87 in 10.0 mi ESE 6.9 mph - N/A   Overcast
3:35 AM 78.1 °F - 74.7 °F 89% 29.87 in 10.0 mi SE 6.9 mph - N/A   Overcast
3:55 AM 78.1 °F - 74.5 °F 89% 29.87 in 10.0 mi ESE 6.9 mph - N/A   Overcast
4:15 AM 78.3 °F - 74.7 °F 89% 29.87 in 10.0 mi ESE 8.1 mph - N/A   Overcast
4:35 AM 78.8 °F - 74.3 °F 86% 29.87 in 10.0 mi ESE 10.4 mph - N/A   Overcast
4:55 AM 78.8 °F - 74.3 °F 86% 29.87 in 10.0 mi ESE 8.1 mph - N/A   Overcast
5:15 AM 78.8 °F - 74.5 °F 87% 29.88 in 10.0 mi ESE 8.1 mph - N/A   Overcast
5:35 AM 78.1 °F - 74.5 °F 89% 29.88 in 10.0 mi ESE 6.9 mph - N/A   Overcast
5:55 AM 78.1 °F - 74.5 °F 89% 29.89 in 7.0 mi ESE 6.9 mph - N/A   Overcast
6:15 AM 78.1 °F - 74.5 °F 89% 29.89 in 10.0 mi East 8.1 mph - N/A   Overcast
6:35 AM 78.3 °F - 74.5 °F 88% 29.90 in 10.0 mi ESE 6.9 mph - N/A   Overcast
6:55 AM 78.4 °F - 74.7 °F 88% 29.91 in 7.0 mi ESE 8.1 mph - N/A   Overcast
7:15 AM 78.8 °F - 74.5 °F 87% 29.91 in 7.0 mi ESE 8.1 mph - N/A   Mostly Cloudy
7:35 AM 79.0 °F - 74.7 °F 87% 29.92 in 7.0 mi ESE 9.2 mph - N/A   Mostly Cloudy
7:55 AM 79.3 °F - 75.0 °F 87% 29.93 in 7.0 mi SE 9.2 mph - N/A   Overcast
8:15 AM 80.2 °F 85.5 °F 75.4 °F 85% 29.94 in 7.0 mi SE 11.5 mph - N/A   Overcast
8:35 AM 80.8 °F 86.5 °F 75.2 °F 83% 29.94 in 10.0 mi SE 13.8 mph 17.3 mph N/A   Overcast
8:55 AM 81.9 °F 88.5 °F 75.0 °F 80% 29.95 in 10.0 mi SSE 13.8 mph - N/A   Mostly Cloudy
9:15 AM 82.9 °F 90.2 °F 75.2 °F 77% 29.95 in 10.0 mi SE 12.7 mph 16.1 mph N/A   Mostly Cloudy
9:35 AM 83.5 °F 90.6 °F 74.5 °F 74% 29.95 in 10.0 mi SE 13.8 mph - N/A   Mostly Cloudy
9:55 AM 85.3 °F 93.4 °F 74.7 °F 70% 29.96 in 10.0 mi SSE 16.1 mph - N/A   Scattered Clouds
10:15 AM 86.2 °F 94.2 °F 73.9 °F 67% 29.95 in 10.0 mi SE 12.7 mph - N/A   Scattered Clouds
10:35 AM 86.4 °F 93.8 °F 73.2 °F 65% 29.96 in 10.0 mi SE 12.7 mph - N/A   Mostly Cloudy
10:55 AM 87.3 °F 94.9 °F 73.2 °F 63% 29.95 in 10.0 mi SE 10.4 mph - N/A   Mostly Cloudy
11:15 AM 88.0 °F 95.1 °F 72.7 °F 60% 29.95 in 10.0 mi SSE 11.5 mph - N/A   Overcast
11:35 AM 88.5 °F 96.3 °F 72.9 °F 60% 29.95 in 10.0 mi SE 12.7 mph - N/A   Overcast
11:55 AM 88.9 °F 97.1 °F 73.4 °F 60% 29.95 in 10.0 mi SSE 11.5 mph - N/A   Overcast
12:15 PM 89.4 °F 97.3 °F 72.7 °F 58% 29.94 in 10.0 mi SSE 10.4 mph 18.4 mph N/A   Mostly Cloudy
12:35 PM 90.0 °F 97.9 °F 73.0 °F 57% 29.94 in 10.0 mi SE 13.8 mph 17.3 mph N/A   Overcast
12:55 PM 90.5 °F 98.6 °F 73.0 °F 56% 29.94 in 10.0 mi SSE 16.1 mph 21.9 mph N/A   Mostly Cloudy
1:15 PM 90.1 °F 98.9 °F 73.4 °F 58% 29.94 in 10.0 mi SE 16.1 mph 21.9 mph N/A   Mostly Cloudy
1:35 PM 91.6 °F 100.5 °F 73.2 °F 55% 29.93 in 10.0 mi SSE 16.1 mph 23.0 mph N/A   Mostly Cloudy
1:55 PM 91.4 °F 100.1 °F 73.0 °F 55% 29.93 in 10.0 mi SE 16.1 mph 21.9 mph N/A   Mostly Cloudy
2:15 PM 91.4 °F 99.5 °F 72.7 °F 54% 29.93 in 10.0 mi SSE 16.1 mph - N/A   Overcast
2:35 PM 91.8 °F 99.7 °F 72.5 °F 53% 29.93 in 10.0 mi SE 13.8 mph 20.7 mph N/A   Mostly Cloudy
2:55 PM 92.1 °F 101.1 °F 73.0 °F 54% 29.92 in 10.0 mi SE 18.4 mph 23.0 mph N/A   Mostly Cloudy
3:15 PM 92.5 °F 100.7 °F 72.5 °F 52% 29.92 in 10.0 mi ESE 16.1 mph 21.9 mph N/A   Mostly Cloudy
3:35 PM 91.8 °F 99.1 °F 72.1 °F 52% 29.92 in 10.0 mi SE 12.7 mph 19.6 mph N/A   Mostly Cloudy
3:55 PM 91.0 °F 99.3 °F 73.0 °F 55% 29.92 in 10.0 mi ESE 17.3 mph 21.9 mph N/A   Mostly Cloudy
4:15 PM 90.9 °F 98.9 °F 72.9 °F 55% 29.91 in 10.0 mi ESE 16.1 mph - N/A   Mostly Cloudy
4:35 PM 90.7 °F 99.0 °F 72.9 °F 56% 29.91 in 10.0 mi ESE 12.7 mph - N/A   Mostly Cloudy
4:55 PM 90.0 °F 97.9 °F 73.0 °F 57% 29.90 in 7.0 mi ESE 16.1 mph 23.0 mph N/A   Mostly Cloudy
5:15 PM 89.6 °F 97.7 °F 72.9 °F 58% 29.90 in 7.0 mi SE 15.0 mph 21.9 mph N/A   Scattered Clouds
5:35 PM 88.9 °F 96.6 °F 73.0 °F 59% 29.89 in 10.0 mi ESE 15.0 mph - N/A   Scattered Clouds
5:55 PM 88.2 °F 96.0 °F 73.4 °F 61% 29.89 in 7.0 mi ESE 17.3 mph 23.0 mph N/A   Mostly Cloudy
6:15 PM 87.6 °F 95.2 °F 73.2 °F 62% 29.88 in 10.0 mi ESE 17.3 mph - N/A   Mostly Cloudy
6:35 PM 86.5 °F 94.2 °F 73.6 °F 65% 29.87 in 10.0 mi SE 18.4 mph 24.2 mph N/A   Mostly Cloudy
6:55 PM 85.5 °F 92.6 °F 73.6 °F 67% 29.87 in 10.0 mi ESE 16.1 mph 21.9 mph N/A   Mostly Cloudy
7:15 PM 84.6 °F 91.4 °F 73.4 °F 69% 29.87 in 10.0 mi ESE 19.6 mph 26.5 mph N/A   Mostly Cloudy
7:35 PM 83.7 °F 90.1 °F 73.4 °F 71% 29.88 in 10.0 mi ESE 15.0 mph - N/A   Mostly Cloudy
7:55 PM 82.9 °F 89.4 °F 73.8 °F 74% 29.89 in 10.0 mi ESE 19.6 mph 24.2 mph N/A   Overcast
8:15 PM 82.4 °F 88.4 °F 73.9 °F 75% 29.89 in 10.0 mi ESE 16.1 mph 20.7 mph N/A   Overcast
8:35 PM 81.7 °F 87.6 °F 74.1 °F 78% 29.89 in 10.0 mi ESE 17.3 mph - N/A   Mostly Cloudy
8:55 PM 81.5 °F 87.2 °F 74.1 °F 78% 29.89 in 10.0 mi SE 17.3 mph - N/A   Mostly Cloudy
9:15 PM 81.1 °F 86.8 °F 74.3 °F 80% 29.91 in 10.0 mi SE 12.7 mph - N/A   Overcast
9:35 PM 81.1 °F 86.8 °F 74.3 °F 80% 29.93 in 10.0 mi ESE 12.7 mph - N/A   Overcast
9:55 PM 81.1 °F 86.8 °F 74.3 °F 80% 29.95 in 10.0 mi ESE 11.5 mph - N/A   Overcast
10:15 PM 81.0 °F 86.3 °F 74.3 °F 80% 29.96 in 10.0 mi ESE 11.5 mph - N/A   Mostly Cloudy
10:35 PM 80.6 °F 85.9 °F 74.5 °F 82% 29.97 in 10.0 mi ESE 11.5 mph - N/A   Scattered Clouds
10:55 PM 80.2 °F 85.0 °F 74.3 °F 82% 29.98 in 10.0 mi ESE 12.7 mph - N/A   Clear
11:15 PM 80.6 °F 85.7 °F 74.3 °F 81% 29.99 in 10.0 mi ESE 11.5 mph - N/A   Clear
11:35 PM 80.1 °F 84.8 °F 74.5 °F 83% 29.99 in 10.0 mi ESE 12.7 mph - N/A   Scattered Clouds
11:55 PM 79.9 °F - 74.8 °F 85% 29.99 in 10.0 mi ESE 11.5 mph - N/A   Mostly Cloudy